CAPE
0 0 0 0 0 0 0 0 0 0 0 0 0 0 0 0 0 0 0 0 0 0 0 0 0 0 0 0 0 0 0 0 0 0 0 0 0 0 0 0 0 0 0 0
0 0 0 0 0 0 0 0 0 0 0 0 0 0 0 0 0 0 0 0 0 0 0 0 0 0 0 0 0 0 0 0 0 0 0 0 0 0 0 0 0 0 0 0
0 0 0 0 0 0 0 0 0 0 0 0 0 0 0 0 0 0 0 0 0 0 0 0 0 0 0 0 0 0 0 0 0 0 0 0 0 0 0 0 0 0 0 0
0 0 0 0 0 0 0 0 0 0 0 0 0 0 0 0 0 0 0 0 0 0 0 0 0 0 0 0 0 0 0 0 0 0 0 0 0 0 0 0 0 0 0 0
0 0 0 0 0 0 0 0 0 0 0 0 0 0 0 0 0 0 0 0 0 0 0 0 0 0 0 0 0 0 0 0 0 0 0 0 0 0 0 0 0 0 0 0
0 0 0 0 0 0 0 0 0 0 0 0 0 0 0 0 0 0 0 0 0 0 0 0 0 0 0 0 0 0 0 0 0 0 0 0 0 0 0 0 0 0 0 0
0 0 0 0 0 0 0 0 0 0 0 0 0 0 0 0 0 0 0 0 0 0 0 0 0 0 0 0 0 0 0 0 0 0 0 0 0 0 0 0 0 0 0 0
0 0 0 0 0 0 0 0 0 0 0 0 0 0 0 0 0 0 0 0 0 0 0 0 0 0 0 0 0 0 2 0 0 0 0 0 0 0 0 0 0 0 0 0
0 0 0 0 0 0 0 0 0 0 0 0 0 0 0 0 0 0 0 0 0 0 0 0 0 0 0 0 0 0 2 0 0 0 0 0 0 0 0 0 0 0 0 0
1 0 0 0 0 0 0 0 0 0 0 0 0 0 0 0 0 0 0 0 0 0 0 0 0 0 0 0 0 0 0 0 0 0 0 0 0 0 0 0 0 0 0 0
4 4 1 0 0 0 0 0 0 0 0 0 0 0 0 0 0 0 0 0 0 0 0 0 0 0 0 0 0 0 0 0 0 0 0 0 0 0 0 0 0 0 0 0
1 7 8 2 0 0 0 0 0 0 0 0 0 0 0 0 0 0 0 0 0 0 0 0 0 0 0 0 0 0 0 0 0 0 0 0 0 0 0 0 0 0 0 0
10 10 12 12 7 5 0 0 0 0 0 0 0 0 0 0 0 0 0 0 0 0 0 0 0 0 0 0 0 0 0 0 0 0 0 0 0 0 0 0 0 0 0 0
4 9 24 9 8 16 0 0 0 0 0 0 0 0 0 0 0 0 0 0 0 0 0 0 0 0 0 0 0 0 0 0 0 0 0 0 0 0 0 0 0 0 0 0
13 5 12 7 17 29 0 0 0 0 0 0 0 0 0 0 0 0 0 0 0 0 0 0 0 0 0 0 0 0 0 0 0 0 0 0 0 0 0 0 0 0 0 0
30 17 3 10 17 6 0 0 0 0 0 0 0 0 0 0 0 0 0 0 0 0 0 0 0 0 0 0 0 0 0 0 0 0 0 0 0 0 0 0 0 0 0 0
18 33 11 4 11 0 0 0 0 0 0 0 0 0 0 0 0 0 0 0 0 0 0 0 0 0 0 0 0 0 0 0 0 0 0 0 0 0 0 0 0 0 0 0
56 20 7 2 5 0 0 0 0 0 0 0 0 0 0 0 0 0 0 0 1 1 0 0 0 0 0 0 0 0 0 0 0 0 0 0 0 0 0 0 0 0 0 0
82 64 15 2 0 0 0 0 0 0 0 0 0 0 0 0 0 0 0 0 0 0 0 0 0 0 0 0 0 0 0 0 0 0 0 0 0 0 0 0 0 0 0 0
0 17 0 0 0 4 0 0 0 0 0 0 0 0 0 0 0 0 0 0 0 0 0 0 1 0 0 0 0 0 0 0 0 0 0 0 0 0 0 0 0 0 0 0
0 0 0 0 2 0 0 0 0 0 0 0 0 0 0 0 0 0 0 0 0 0 0 0 0 0 0 0 0 0 0 0 0 0 0 0 0 0 0 0 0 0 0 0
1 0 0 0 0 0 0 0 0 0 0 0 0 0 0 0 0 0 0 0 0 0 0 0 0 0 0 0 0 0 0 0 0 0 0 0 0 0 0 0 0 0 0 0
0 0 0 0 0 0 0 0 0 0 0 0 0 0 0 0 0 0 0 0 0 0 0 0 0 0 0 0 0 0 0 0 0 0 0 0 0 0 0 0 0 0 0 0
0 0 0 0 0 0 0 0 0 0 0 0 0 0 0 0 0 0 0 0 0 0 0 0 0 0 0 0 0 0 0 0 0 0 0 0 0 0 0 0 0 0 0 0
0 0 0 0 0 0 0 0 0 0 0 0 0 0 0 0 0 0 0 0 0 0 0 0 0 0 0 0 0 0 0 0 0 0 0 0 0 0 0 0 0 0 0 0
3 0 0 0 0 0 0 0 0 0 0 0 0 0 0 0 0 0 0 0 0 0 0 0 0 0 0 0 0 0 0 0 0 0 0 0 0 0 0 0 0 0 0 0
0 0 0 0 0 0 0 0 0 0 0 0 0 0 0 0 0 0 0 0 0 0 0 0 0 0 0 0 0 0 0 0 0 0 0 0 0 0 0 0 0 0 0 0
CIN
-0 -0 -0 -0 -0 -0 -0 -0 -0 -0 -0 -0 -0 -0 -0 -0 -0 -0 -0 -0 -0 -0 -0 -0 -0 -0 -0 -0 -0 -0 -0 -0 -0 -0 -0 -0 -0 -0 -0 -0 -0 -0 -0 -0
-0 -0 -0 -0 -0 -0 -0 -0 -0 -0 -0 -0 -0 -0 -0 -0 -0 -0 -0 -0 -0 -0 -0 -0 -0 -0 -0 -0 -0 -0 -0 -0 -0 -0 -0 -0 -0 -0 -0 -0 -0 -0 -0 -0
-0 -0 -0 -0 -0 -0 -0 -0 -0 -0 -0 -0 -0 -0 -0 -0 -0 -0 -0 -0 -0 -0 -0 -0 -0 -0 -0 -0 -0 -0 -0 -0 -0 -0 -0 -0 -0 -0 -0 -0 -0 -0 -0 -0
-0 -0 -0 -0 -0 -0 -0 -0 -0 -0 -0 -0 -0 -0 -0 -0 -0 -0 -0 -0 -0 -0 -0 -0 -0 -0 -0 -0 -0 -0 -0 -0 -0 -0 -0 -0 -0 -0 -0 -0 -0 -0 -0 -0
-0 -0 -0 -0 -0 -0 -0 -0 -0 -0 -0 -0 -0 -0 -0 -0 -0 -0 -0 -0 -0 -0 -0 -0 -0 -0 -0 -0 -0 -0 -0 -0 -0 -0 -0 -0 -0 -0 -0 -0 -0 -0 -0 -0
-0 -0 -0 -0 -0 -0 -0 -0 -0 -0 -0 -0 -0 -0 -0 -0 -0 -0 -0 -0 -0 -0 -0 -0 -0 -0 -0 -0 -0 -0 -0 -0 -0 -0 -0 -0 -0 -0 -0 -0 -0 -0 -0 -0
-0 -0 -0 -0 -0 -0 -0 -0 -0 -0 -0 -0 -0 -0 -0 -0 -0 -0 -0 -0 -0 -0 -0 -0 -0 -0 -0 -0 -0 -0 -0 -0 -0 -0 -0 -0 -0 -0 -0 -0 -0 -0 -0 -0
-0 -0 -0 -0 -0 -0 -0 -0 -0 -0 -0 -0 -0 -0 -0 -0 -0 -0 -0 -0 -0 -0 -0 -0 -0 -0 -0 -0 -0 -0 -0 -0 -0 -0 -0 -0 -0 -0 -0 -0 -0 -0 -0 -0
-0 -0 -0 -0 -0 -0 -0 -0 -0 -0 -0 -0 -0 -0 -0 -0 -0 -0 -0 -0 -0 -0 -0 -0 -0 -0 -0 -0 -0 -0 -0 -0 -0 -0 -0 -0 -0 -0 -0 -0 -0 -0 -0 -0
-0 -0 -0 -0 -0 -0 -0 -0 -0 -0 -0 -0 -0 -0 -0 -0 -0 -0 -0 -0 -0 -0 -0 -0 -0 -0 -0 -0 -0 -0 -0 -0 -0 -0 -0 -0 -0 -0 -0 -0 -0 -0 -0 -0
-0 -0 -0 -0 -0 -0 -0 -0 -0 -0 -0 -0 -0 -0 -0 -0 -0 -0 -0 -0 -0 -0 -0 -0 -0 -0 -0 -0 -0 -0 -0 -0 -0 -0 -0 -0 -0 -0 -0 -0 -0 -0 -0 -0
-0 -1 -0 -0 -0 -0 -0 -0 -0 -0 -0 -0 -0 -0 -0 -0 -0 -0 -0 -0 -0 -0 -0 -0 -0 -0 -0 -0 -0 -0 -0 -0 -0 -0 -0 -0 -0 -0 -0 -0 -0 -0 -0 -0
-0 -2 -1 -0 -0 -0 -0 -0 -0 -0 -0 -0 -0 -0 -0 -0 -0 -0 -0 -0 -0 -0 -0 -0 -0 -0 -0 -0 -0 -0 -0 -0 -0 -0 -0 -0 -0 -0 -0 -0 -0 -0 -0 -0
-1 -0 -0 -0 -0 -0 -0 -0 -0 -0 -0 -0 -0 -0 -0 -0 -0 -0 -0 -0 -0 -0 -0 -0 -0 -0 -0 -0 -0 -0 -0 -0 -0 -0 -0 -0 -0 -0 -0 -0 -0 -0 -0 -0
-0 -3 -0 -0 -1 -0 -0 -0 -0 -0 -0 -0 -0 -0 -0 -0 -0 -0 -0 -0 -0 -0 -0 -0 -0 -0 -0 -0 -0 -0 -0 -0 -0 -0 -0 -0 -0 -0 -0 -0 -0 -0 -0 -0
-0 -1 -1 -0 -1 -1 -0 -0 -0 -0 -0 -0 -0 -0 -0 -0 -0 -0 -0 -0 -0 -0 -0 -0 -0 -0 -0 -0 -0 -0 -0 -0 -0 -0 -0 -0 -0 -0 -0 -0 -0 -0 -0 -0
-4 -0 -2 -0 -0 -0 -0 -0 -0 -0 -0 -0 -0 -0 -0 -0 -0 -0 -0 -0 -0 -0 -0 -0 -0 -0 -0 -0 -0 -0 -0 -0 -0 -0 -0 -0 -0 -0 -0 -0 -0 -0 -0 -0
-0 -1 -3 -0 -0 -0 -0 -0 -0 -0 -0 -0 -0 -0 -0 -0 -0 -0 -0 -0 -0 -0 -0 -0 -0 -0 -0 -0 -0 -0 -0 -0 -0 -0 -0 -0 -0 -0 -0 -0 -0 -0 -0 -0
-0 -1 -3 -0 -0 -0 -0 -0 -0 -0 -0 -0 -0 -0 -0 -0 -0 -0 -0 -0 -0 -0 -0 -0 -0 -0 -0 -0 -0 -0 -0 -0 -0 -0 -0 -0 -0 -0 -0 -0 -0 -0 -0 -0
-0 -7 -0 -0 -0 -0 -0 -0 -0 -0 -0 -0 -0 -0 -0 -0 -0 -0 -0 -0 -0 -0 -0 -0 -0 -0 -0 -0 -0 -0 -0 -0 -0 -0 -0 -0 -0 -0 -0 -0 -0 -0 -0 -0
-0 -0 -0 -0 -0 -0 -0 -0 -0 -0 -0 -0 -0 -0 -0 -0 -0 -0 -0 -0 -0 -0 -0 -0 -0 -0 -0 -0 -0 -0 -0 -0 -0 -0 -0 -0 -0 -0 -0 -0 -0 -0 -0 -0
-0 -0 -0 -0 -0 -0 -0 -0 -0 -0 -0 -0 -0 -0 -0 -0 -0 -0 -0 -0 -0 -0 -0 -0 -0 -0 -0 -0 -0 -0 -0 -0 -0 -0 -0 -0 -0 -0 -0 -0 -0 -0 -0 -0
-0 -0 -0 -0 -0 -0 -0 -0 -0 -0 -0 -0 -0 -0 -0 -0 -0 -0 -0 -0 -0 -0 -0 -0 -0 -0 -0 -0 -0 -0 -0 -0 -0 -0 -0 -0 -0 -0 -0 -0 -0 -0 -0 -0
-0 -0 -0 -0 -0 -0 -0 -0 -0 -0 -0 -0 -0 -0 -0 -0 -0 -0 -0 -0 -0 -0 -0 -0 -0 -0 -0 -0 -0 -0 -0 -0 -0 -0 -0 -0 -0 -0 -0 -0 -0 -0 -0 -0
-8 -0 -0 -0 -0 -0 -0 -0 -0 -0 -0 -0 -0 -0 -0 -0 -0 -0 -0 -0 -0 -0 -0 -0 -0 -0 -0 -0 -0 -0 -0 -0 -0 -0 -0 -0 -0 -0 -0 -0 -0 -0 -0 -0
-4 -0 -0 -0 -0 -0 -0 -0 -0 -0 -0 -0 -0 -0 -0 -0 -0 -0 -0 -0 -0 -0 -0 -0 -0 -0 -0 -0 -0 -0 -0 -0 -0 -0 -0 -0 -0 -0 -0 -0 -0 -0 -0 -0
-0 -0 -0 -0 -0 -0 -0 -0 -0 -0 -0 -0 -0 -0 -0 -0 -0 -0 -0 -0 -0 -0 -0 -0 -0 -0 -0 -0 -0 -0 -0 -0 -0 -0 -0 -0 -0 -0 -0 -0 -0 -0 -0 -0
Wind_Speed
44 46 48 51 52 44 28 27 30 28 22 29 28 29 25 22 22 20 21 20 21 21 20 19 21 23 17 15 15 12 13 12 14 20 15 17 20 25 28 35 35 34 37 37
42 45 47 49 50 44 30 28 27 28 25 27 28 25 25 24 22 20 18 19 18 18 17 19 21 19 13 14 13 11 14 6 1 19 21 21 25 25 27 26 27 38 37 35
40 42 45 47 47 42 30 28 29 28 32 27 25 23 23 21 20 21 19 17 16 16 16 16 17 17 13 15 14 15 12 11 11 19 20 22 29 27 28 31 37 37 42 37
37 39 42 44 45 40 28 31 28 26 29 29 26 23 21 21 19 18 18 18 17 14 14 14 15 14 14 16 17 16 14 17 13 17 17 17 22 26 30 36 39 38 37 36
34 36 38 40 42 35 32 29 27 25 25 24 23 23 21 21 18 17 17 18 17 16 14 12 11 12 12 12 11 12 12 14 12 17 16 22 26 30 29 36 36 41 39 41
31 32 34 36 38 33 28 26 24 24 25 25 25 22 19 18 17 15 14 14 14 14 14 12 11 11 9 9 8 9 12 12 11 12 9 14 29 19 31 33 35 37 44 39
28 28 30 31 33 30 25 25 24 25 25 24 25 21 19 17 16 16 14 12 12 12 12 11 11 10 9 8 7 7 5 7 8 7 9 14 16 22 23 30 33 34 38 33
25 26 26 26 27 26 24 23 23 23 25 22 22 21 20 19 17 16 14 12 12 13 12 13 13 11 11 9 9 8 10 5 3 1 7 17 13 20 21 22 35 31 35 31
23 22 22 23 24 23 22 22 21 23 25 21 21 22 20 22 19 18 15 14 13 13 14 14 14 13 12 11 11 12 9 14 8 7 7 6 14 17 25 26 32 28 28 28
24 23 22 21 21 22 22 21 19 22 26 19 19 23 22 19 19 20 18 16 16 14 15 15 14 15 15 15 14 11 11 12 10 12 13 22 18 12 13 5 29 24 23 23
23 22 21 20 19 19 20 21 19 22 24 23 17 17 20 19 17 20 16 19 18 17 16 16 15 15 15 17 16 15 13 12 14 14 17 21 13 12 14 14 17 22 24 23
19 19 18 17 16 15 17 22 18 18 22 24 20 18 17 16 16 17 16 20 19 17 17 17 17 17 16 17 18 17 18 16 18 16 19 18 10 15 12 12 14 15 17 18
18 17 16 14 12 10 13 17 14 18 23 24 21 17 13 13 12 15 20 19 18 19 18 18 20 20 18 20 22 22 22 19 24 25 23 22 21 14 17 13 14 14 14 14
20 18 16 14 13 13 11 15 12 15 19 25 21 15 13 12 14 15 17 17 16 15 15 18 20 21 19 23 25 21 21 15 22 26 27 26 24 19 18 16 17 16 13 11
20 19 17 15 13 12 10 14 12 13 16 23 22 19 17 18 14 13 14 13 15 16 17 17 19 22 21 25 26 26 17 20 21 28 23 22 21 18 17 16 16 14 12 11
23 21 19 16 13 11 15 24 19 14 15 22 26 21 20 17 16 15 15 12 16 17 19 21 21 21 20 23 29 26 16 17 18 23 18 18 18 19 19 18 14 13 11 11
25 22 21 19 16 15 20 23 19 7 11 20 27 25 20 14 14 16 15 15 18 19 22 23 23 23 21 27 33 29 24 17 16 18 20 25 21 21 16 16 13 12 13 13
27 24 22 20 17 18 22 19 7 6 16 19 26 26 22 13 20 22 17 19 19 20 24 24 24 23 24 33 30 27 24 21 20 19 18 21 18 16 15 14 11 11 12 13
29 22 17 15 22 24 21 10 11 17 21 25 24 26 29 16 20 19 18 19 26 23 26 26 23 27 27 27 27 26 21 18 19 17 17 16 18 20 16 14 12 13 13 14
29 21 18 25 20 7 5 18 22 25 26 27 31 24 28 19 21 21 21 21 24 28 26 22 28 33 26 28 27 26 22 13 13 18 19 17 19 19 19 17 14 13 13 13
22 21 23 12 8 15 20 23 24 24 30 27 28 25 26 21 26 24 20 23 22 29 26 26 30 33 28 25 25 19 17 15 15 19 22 18 21 22 19 19 16 15 15 15
17 12 10 12 19 19 23 26 24 27 31 24 24 22 19 19 17 20 19 23 22 29 21 27 32 27 26 25 22 19 18 17 19 19 20 20 21 19 17 17 17 16 16 17
14 18 18 20 21 27 28 31 29 28 24 21 18 19 15 16 17 20 19 23 26 21 27 30 27 25 24 24 20 18 20 19 18 17 17 16 16 14 15 17 18 18 18 18
18 21 27 26 26 29 31 31 31 26 20 12 10 15 17 16 17 17 21 22 21 28 31 30 25 22 22 21 19 19 20 18 17 17 17 17 16 16 18 21 22 22 22 21
16 18 26 26 26 25 25 23 22 21 14 10 12 16 17 16 17 17 19 22 28 26 27 22 23 21 19 19 18 18 18 18 18 19 20 20 21 21 22 23 23 23 24 24
11 14 19 20 23 25 24 24 22 16 12 10 16 17 19 21 18 19 21 25 28 24 22 20 18 18 17 16 17 17 18 20 21 22 23 24 25 25 26 25 26 27 26 27
13 16 15 16 22 23 20 19 21 16 19 22 20 20 21 17 22 22 18 23 24 20 18 17 17 16 16 16 17 20 22 23 24 26 27 27 28 28 29 31 30 29 28 28
Wind_Direction
346 348 349 354 359 15 32 37 38 36 59 50 58 61 73 85 86 97 104 111 114 119 125 128 135 135 247 264 252 262 305 269 232 232 259 256 246 238 240 236 239 244 245 248
348 347 348 352 357 12 26 29 36 39 48 44 51 63 66 73 80 85 97 103 113 121 122 121 134 140 280 290 290 308 292 334 233 253 256 256 248 246 246 250 252 244 247 251
347 347 348 349 354 10 27 23 24 29 36 45 47 53 56 64 76 78 87 99 108 114 117 129 131 138 135 293 292 294 304 301 151 167 263 256 249 250 249 250 249 250 250 255
346 345 347 349 353 6 22 16 24 29 24 28 35 42 48 51 58 67 74 77 82 101 98 109 121 129 142 151 244 296 299 160 300 286 285 274 262 256 252 251 252 253 256 258
342 343 345 347 349 5 15 12 16 21 24 28 25 28 30 33 45 52 52 56 62 71 77 89 103 116 118 134 139 146 194 164 162 184 290 277 268 264 263 256 258 258 260 260
340 344 344 346 349 1 6 10 14 13 10 12 14 17 24 26 33 42 46 47 47 46 53 67 76 84 102 121 113 130 164 159 157 178 174 185 214 252 261 262 260 261 258 264
334 339 343 349 353 1 6 3 3 360 356 2 4 8 13 12 15 16 25 35 31 33 31 35 38 42 44 52 59 50 85 139 157 174 166 206 247 280 275 266 267 263 265 268
326 332 337 344 350 356 360 5 1 355 348 350 354 357 357 357 358 359 2 12 19 16 15 3 358 3 359 1 2 4 351 27 53 174 207 218 224 284 279 273 272 272 268 268
316 323 328 333 339 346 350 353 357 348 341 340 347 347 349 346 345 346 351 0 5 2 352 349 339 337 344 344 345 334 336 320 333 348 341 336 330 304 279 280 223 278 275 271
306 310 315 321 328 333 337 339 346 341 332 336 340 337 339 345 340 337 339 344 343 347 337 328 325 322 326 319 318 323 320 312 298 304 313 308 316 338 324 258 277 280 281 277
299 302 306 311 317 324 329 330 336 334 327 327 328 334 334 336 336 334 339 337 337 336 329 327 325 319 316 314 310 309 303 303 303 302 302 305 322 328 310 327 317 291 284 281
291 295 298 303 310 316 325 321 329 334 324 322 327 322 327 326 331 335 332 325 327 328 325 323 327 319 318 313 310 305 299 292 299 287 299 309 314 315 326 336 331 324 307 296
286 286 289 293 298 305 319 325 332 334 325 323 325 329 329 324 328 334 326 325 325 321 322 318 314 307 308 300 297 297 296 294 291 294 296 292 293 294 304 313 317 320 317 308
279 280 281 279 284 290 301 316 327 332 332 321 327 347 345 345 331 329 327 330 337 338 326 317 314 311 312 308 303 298 302 295 291 291 292 296 294 288 288 289 297 303 308 308
275 270 270 271 272 276 290 306 309 317 317 317 321 327 326 326 327 324 327 327 328 327 323 319 315 314 310 306 306 301 291 289 286 293 299 298 302 305 301 286 281 284 287 292
276 267 260 259 262 265 292 299 294 284 301 310 311 322 321 323 323 319 319 319 322 320 318 316 317 314 311 312 308 307 289 284 287 296 305 305 308 306 304 299 287 280 278 281
272 271 257 245 248 253 276 296 309 282 301 305 307 309 318 327 323 321 322 320 318 314 313 310 310 311 309 306 303 306 304 293 289 297 302 300 298 301 307 303 294 283 283 284
273 266 255 238 237 260 268 292 292 298 305 305 301 305 308 315 307 307 316 311 312 311 309 312 310 313 310 305 308 306 299 294 288 291 289 299 308 307 305 306 296 283 276 277
272 271 245 249 260 263 269 264 282 295 292 294 294 294 305 313 308 312 312 310 305 311 303 305 310 306 305 307 314 314 307 295 297 300 296 291 290 294 298 298 291 281 276 274
286 272 263 264 256 184 243 285 280 284 284 284 286 292 293 301 304 304 308 310 305 303 305 313 305 303 303 302 304 308 313 302 305 303 300 292 293 291 290 287 289 283 280 277
267 274 265 259 179 269 270 273 276 282 286 287 286 273 284 294 292 294 300 304 307 303 308 306 309 314 324 329 321 310 291 294 295 301 302 299 296 300 293 292 292 288 287 284
265 275 269 252 268 269 269 265 277 279 286 290 291 297 289 290 299 296 299 298 303 302 314 308 309 320 328 328 327 326 317 308 303 307 303 296 296 295 298 300 297 291 289 290
276 271 266 264 264 259 260 263 274 280 285 289 290 293 296 299 299 301 298 294 296 311 304 305 311 326 330 329 326 323 320 316 315 319 319 312 305 300 300 301 304 303 297 293
271 259 263 261 266 266 265 269 272 280 283 275 278 292 300 304 297 301 295 300 305 302 301 304 318 325 328 329 327 322 321 325 329 328 325 321 317 310 305 302 302 303 303 300
278 271 269 265 269 276 284 279 280 282 262 255 283 299 301 301 301 302 303 301 298 302 305 314 323 328 328 326 324 325 329 331 328 325 324 321 318 314 310 309 307 306 305 304
283 282 276 281 280 277 277 276 276 276 250 271 290 293 295 293 300 297 293 298 298 307 311 322 333 336 335 330 329 328 327 323 322 320 319 318 316 313 310 311 309 308 306 304
285 287 281 276 289 289 283 280 273 258 250 267 285 285 290 302 295 295 299 300 308 315 325 333 338 337 333 330 329 326 324 323 323 321 319 318 316 314 311 308 309 308 307 306